EW8476 Weather Reports


time (UTC)temp
C
wind
direction
speed
KPH
gust
KPH
rain 1hr
cm
rain 24hr
cm
rain mn
cm
humidity
%
barometer
mb
20260510190606 28 204 14.5 24.1 0.00 0.00 0.00 51 940.6
20260510185547 28 165 9.7 27.4 0.00 0.00 0.00 54 940.8
20260510184533 28 173 17.7 33.8 0.00 0.00 0.00 54 940.7
20260510183519 28 168 14.5 30.6 0.00 0.00 0.00 54 940.5
20260510182625 28 170 16.1 29.0 0.00 0.00 0.00 54 940.6
20260510181552 27 190 24.1 35.4 0.00 0.00 0.00 54 940.8
20260510180559 27 181 17.7 40.2 0.00 0.00 0.00 53 940.8
20260510175517 27 175 20.9 30.6 0.00 0.00 0.00 55 940.9
20260510174608 27 179 9.7 33.8 0.00 0.00 0.00 57 941.0
20260510173548 27 167 14.5 27.4 0.00 0.00 0.00 57 941.1
20260510172526 27 162 16.1 32.2 0.00 0.00 0.00 58 941.3
20260510171609 27 184 19.3 35.4 0.00 0.00 0.00 57 941.4
20260510170556 27 162 11.3 27.4 0.00 0.00 0.00 57 941.5
20260510165541 27 172 11.3 29.0 0.00 0.00 0.00 60 941.4
20260510164541 27 183 12.9 29.0 0.00 0.00 0.00 58 941.4
20260510163610 26 158 11.3 25.7 0.00 0.00 0.00 60 941.4
20260510162617 26 157 12.9 24.1 0.00 0.00 0.00 60 941.4
20260510161543 26 137 11.3 24.1 0.00 0.00 0.00 61 941.2
20260510160525 26 173 11.3 19.3 0.00 0.00 0.00 63 941.2
20260510155648 26 176 12.9 19.3 0.00 0.00 0.00 62 941.2
20260510154539 25 182 9.7 20.9 0.00 0.00 0.00 64 941.1
20260510153527 25 179 12.9 24.1 0.00 0.00 0.00 67 940.6
20260510152613 25 182 16.1 30.6 0.00 0.00 0.00 68 940.4
20260510151551 24 189 12.9 24.1 0.00 0.00 0.00 70 940.5
20260510150533 24 204 16.1 29.0 0.00 0.00 0.00 72 940.4
20260510145616 23 195 19.3 32.2 0.00 0.00 0.00 73 940.1
20260510144553 23 195 24.1 33.8 0.00 0.03 0.00 75 939.9
20260510143540 23 202 17.7 40.2 0.00 0.03 0.00 78 939.8
20260510142527 22 199 22.5 33.8 0.00 0.03 0.00 79 939.8
20260510141614 22 217 17.7 30.6 0.00 0.03 0.00 81 939.9
20260510140600 22 193 22.5 37.0 0.00 0.05 0.00 83 939.8
20260510135538 21 198 17.7 30.6 0.00 0.05 0.00 85 939.8
20260510134520 21 203 17.7 29.0 0.00 0.05 0.00 85 939.7
20260510133559 21 207 20.9 35.4 0.00 0.05 0.00 86 939.6
20260510132542 21 201 20.9 30.6 0.00 0.05 0.00 87 939.5
20260510131549 20 203 17.7 29.0 0.00 0.05 0.00 88 939.5
20260510130516 20 209 17.7 33.8 0.00 0.05 0.00 90 939.3
20260510125600 20 203 17.7 24.1 0.00 0.05 0.00 90 939.1
20260510124606 20 204 12.9 20.9 0.00 0.05 0.00 91 939.3
20260510123532 19 207 12.9 20.9 0.00 0.05 0.00 92 939.0
20260510122519 19 196 14.5 20.9 0.00 0.05 0.00 93 939.0
20260510121603 18 202 11.3 16.1 0.00 0.05 0.00 94 939.2
20260510120543 18 202 11.3 19.3 0.00 0.05 0.00 94 939.1
20260510115522 18 202 12.9 17.7 0.00 0.08 0.00 94 939.0
20260510114605 18 199 8.0 20.9 0.00 0.08 0.00 95 938.6
20260510113551 18 179 11.3 17.7 0.00 0.08 0.00 94 938.6
20260510112534 18 204 9.7 17.7 0.00 0.08 0.00 94 938.6
20260510111517 18 191 9.7 16.1 0.00 0.08 0.00 93 938.7
20260510110600 18 176 9.7 19.3 0.00 0.08 0.00 93 938.7
20260510105541 19 194 11.3 19.3 0.00 0.08 0.00 92 938.7
20260510104519 19 205 14.5 24.1 0.00 0.08 0.00 92 938.6
20260510103559 19 191 11.3 19.3 0.00 0.08 0.00 92 938.7
20260510102537 19 204 12.9 19.3 0.00 0.08 0.00 92 938.9
20260510101519 18 188 9.7 16.1 0.00 0.08 0.00 92 938.7
20260510100559 19 201 8.0 16.1 0.00 0.08 0.00 91 938.9
20260510095546 19 195 12.9 24.1 0.00 0.08 0.00 91 938.7
20260510094525 19 187 11.3 17.7 0.00 0.08 0.00 90 938.8
20260510093612 19 195 11.3 19.3 0.00 0.08 0.00 89 938.7
20260510092559 20 193 9.7 17.7 0.00 0.08 0.00 88 938.7
20260510091539 20 193 11.3 14.5 0.00 0.08 0.00 88 938.6
20260510090527 20 195 9.7 16.1 0.00 0.08 0.00 87 938.6
20260510085610 20 192 9.7 19.3 0.00 0.08 0.00 87 938.5
20260510084552 20 191 11.3 19.3 0.00 0.08 0.00 86 938.4
20260510083535 20 192 11.3 19.3 0.00 0.08 0.00 86 938.3
20260510082540 20 190 12.9 17.7 0.00 0.08 0.00 86 938.4
20260510081607 20 198 11.3 12.9 0.00 0.08 0.00 86 938.6
20260510080549 20 188 9.7 12.9 0.00 0.08 0.00 85 938.5
20260510075528 20 190 11.3 14.5 0.00 0.08 0.00 83 938.6
20260510074607 20 195 11.3 17.7 0.00 0.08 0.00 83 938.5
20260510073554 20 190 9.7 14.5 0.00 0.08 0.00 84 938.5
20260510072540 20 184 9.7 12.9 0.00 0.08 0.00 83 938.6
20260510071539 20 182 8.0 11.3 0.00 0.08 0.00 83 938.7
20260510070602 20 183 4.8 9.7 0.00 0.08 0.00 83 938.6
20260510065545 20 185 4.8 8.0 0.00 0.08 0.00 81 938.6
20260510064531 21 180 4.8 11.3 0.00 0.08 0.00 80 938.8
20260510063519 21 176 4.8 8.0 0.00 0.08 0.00 80 938.7
20260510062607 21 186 4.8 9.7 0.00 0.08 0.00 78 938.8
20260510061549 21 175 4.8 12.9 0.00 0.08 0.00 78 938.9
20260510060549 21 164 8.0 14.5 0.00 0.08 0.00 79 938.8
20260510055516 21 160 4.8 11.3 0.00 0.08 0.00 78 938.8
20260510054604 21 174 3.2 9.7 0.00 0.08 0.00 80 938.7
20260510053546 20 184 4.8 8.0 0.00 0.08 0.00 79 938.4
20260510052524 21 181 4.8 8.0 0.00 0.08 0.00 79 938.6
20260510051628 21 183 6.4 9.7 0.00 0.08 0.00 78 938.5
20260510050554 21 178 6.4 9.7 0.00 0.08 0.00 78 938.5
20260510045541 21 181 4.8 8.0 0.00 0.08 0.08 77 938.6
20260510044528 21 194 4.8 8.0 0.00 0.08 0.08 75 938.6
20260510043616 22 184 4.8 9.7 0.00 0.08 0.08 75 938.7
20260510042621 22 167 4.8 9.7 0.00 0.08 0.08 73 938.6
20260510041548 22 154 4.8 11.3 0.00 0.08 0.08 73 938.6
20260510040555 22 155 4.8 11.3 0.00 0.08 0.08 73 938.3
20260510035522 22 148 4.8 11.3 0.00 0.08 0.08 73 938.4
20260510034559 22 136 6.4 9.7 0.00 0.08 0.08 73 938.3
20260510033546 23 135 6.4 17.7 0.00 0.08 0.08 73 938.2
20260510032525 23 137 4.8 11.3 0.00 0.08 0.08 72 938.2
20260510031600 23 144 6.4 9.7 0.00 0.08 0.08 71 938.0
20260510030625 23 139 6.4 14.5 0.00 0.08 0.08 69 937.9
20260510025530 23 129 6.4 14.5 0.00 0.08 0.08 69 937.6
20260510024613 23 133 4.8 11.3 0.00 0.08 0.08 67 937.5
20260510023559 24 134 3.2 9.7 0.00 0.08 0.08 64 937.5
20260510022604 25 133 6.4 12.9 0.00 0.08 0.08 60 937.5
20260510021524 26 138 4.8 14.5 0.00 0.08 0.08 52 937.3
20260510020612 26 87 0.0 4.8 0.00 0.08 0.08 49 937.2
20260510015559 27 75 0.0 3.2 0.00 0.08 0.08 46 937.0
20260510014546 27 330 1.6 3.2 0.00 0.08 0.08 44 937.0
20260510013528 27 122 1.6 3.2 0.00 0.08 0.08 44 936.9
20260510012604 27 156 0.0 3.2 0.00 0.08 0.08 45 936.8
20260510011551 28 158 0.0 4.8 0.00 0.08 0.08 44 936.9
20260510010538 28 0.0 1.6 0.00 0.08 0.08 42 936.9
20260510005525 29 0.0 1.6 0.00 0.08 0.08 44 936.9
20260510004628 29 180 0.0 3.2 0.00 0.08 0.08 43 936.8
20260510003552 30 33 1.6 3.2 0.00 0.08 0.08 45 936.9
20260510002536 30 333 0.0 3.2 0.00 0.08 0.08 44 936.7
20260510001542 30 188 4.8 8.0 0.00 0.08 0.08 39 936.8
20260510000642 31 211 1.6 3.2 0.00 0.08 0.08 38 936.7
20260509235549 32 165 1.6 3.2 0.00 0.08 0.08 35 937.0
20260509234536 32 156 1.6 3.2 0.00 0.08 0.08 34 936.9
20260509233524 31 271 3.2 8.0 0.00 0.08 0.08 36 936.8
20260509232613 30 187 3.2 8.0 0.00 0.08 0.08 39 936.7
20260509231554 30 229 6.4 11.3 0.00 0.08 0.08 40 936.6
20260509230537 30 232 9.7 16.1 0.00 0.08 0.08 38 936.6
20260509225520 30 211 4.8 9.7 0.00 0.08 0.08 43 936.8
20260509224601 30 214 6.4 14.5 0.00 0.08 0.08 42 936.8
20260509223548 30 203 8.0 12.9 0.00 0.08 0.08 42 936.8
20260509222535 30 149 3.2 9.7 0.00 0.08 0.08 43 936.7
20260509221522 30 201 6.4 11.3 0.00 0.08 0.08 42 936.8
20260509220610 30 239 11.3 22.5 0.00 0.08 0.08 44 936.8
20260509215552 29 222 3.2 17.7 0.00 0.08 0.08 46 936.7
20260509214537 29 243 12.9 20.9 0.00 0.08 0.08 46 936.8
20260509213520 29 205 8.0 14.5 0.00 0.08 0.08 46 936.8
20260509212608 29 233 9.7 24.1 0.00 0.08 0.08 48 937.0
20260509211555 29 288 12.9 17.7 0.00 0.08 0.08 48 937.0
20260509210542 28 215 11.3 20.9 0.00 0.08 0.08 48 937.0
20260509205528 28 265 19.3 30.6 0.00 0.08 0.08 50 937.3
20260509204609 28 271 9.7 17.7 0.00 0.08 0.08 51 937.4
20260509203544 28 274 9.7 17.7 0.00 0.08 0.08 54 937.4
20260509202546 28 255 14.5 22.5 0.00 0.08 0.08 52 937.6
20260509201609 28 218 14.5 20.9 0.00 0.08 0.08 54 937.7
20260509200546 28 233 11.3 20.9 0.00 0.08 0.08 51 937.9
20260509195529 28 247 9.7 17.7 0.00 0.08 0.08 54 938.0
20260509194607 27 213 12.9 27.4 0.00 0.08 0.08 56 938.2
20260509193555 27 279 6.4 19.3 0.00 0.08 0.08 57 938.3
20260509192557 27 230 11.3 24.1 0.00 0.08 0.08 58 938.4
20260509191616 27 268 12.9 22.5 0.00 0.08 0.08 59 938.4